Location: Molino di Ancona
(43.6167°N, 13.3667°E)
Time: 17:21:07
(UTC+00:00)

NOSS 3-2 (C) - Pass Details

Date: 15 December 2019
Orbit: 816 x 1396 km, 63.4° (Epoch: 19 January)

Event Time Altitude Azimuth Distance (km) Brightness Sun altitude
Rises 04:40:21 0° 195° (SSW) 3,359 6.3 -19.5°
Reaches altitude 10° 04:42:47 10° 189° (S) 2,463 5.7 -19.0°
Maximum altitude 04:48:09 46° 117° (ESE) 1,197 4.4 -18.1°
Drops below altitude 10° 04:54:10 10° 46° (NE) 2,755 6.3 -17.1°
Sets 04:57:01 0° 41° (NE) 3,799 6.9 -16.6°
